28 maja 2022

Czas Kod Pogoda Temp. Widoczność Sufit Wiatr METAR/SPECI
4:50 am
V
50 °F 6¼ mi+ - 260° 260° 8 kt METAR EDLV 280250Z 26008KT CAVOK 10/07 Q1020
4:20 am
V
50 °F 6¼ mi+ - 260° 260° 6 kt METAR EDLV 280220Z AUTO 26006KT 9999 // FEW049/// 10/06 Q1021
3:50 am
V
50 °F 6¼ mi+ - 270° 270° 5 kt METAR EDLV 280150Z AUTO 27005KT 9999 // FEW051/// 10/06 Q1021
3:20 am
V
50 °F 6¼ mi+ - 260° 260° 7 kt METAR EDLV 280120Z AUTO 26007KT 9999 // FEW054/// SCT083/// 10/06 Q1021
2:50 am
V
50 °F 6¼ mi+ 8.100 ft 270° 270° 7 kt METAR EDLV 280050Z AUTO 27007KT 9999 // FEW049/// BKN081/// 10/06 Q1021
2:20 am
V
52 °F 6¼ mi+ 6.700 ft 250° 250° 8 kt METAR EDLV 280020Z AUTO 25008KT 9999 // FEW047/// BKN067/// 11/06 Q1021
1:50 am
V
50 °F 6¼ mi+ 6.500 ft 260° 260° 7 kt METAR EDLV 272350Z AUTO 26007KT 9999 // BKN065/// 10/06 Q1021
1:20 am
V
50 °F 6¼ mi+ 7.200 ft 260° 260° 7 kt METAR EDLV 272320Z AUTO 26007KT 9999 // FEW049/// BKN072/// 10/06 Q1022
12:50 am
V
50 °F 6¼ mi+ - 270° 270° 6 kt METAR EDLV 272250Z AUTO 27006KT 9999 // NCD 10/05 Q1022
12:20 am
V
50 °F 6¼ mi+ - 260° 260° 5 kt METAR EDLV 272220Z AUTO 26005KT 9999 // NCD 10/06 Q1022

27 maja 2022

Czas Kod Pogoda Temp. Widoczność Sufit Wiatr METAR/SPECI
11:50 pm
V
50 °F 6¼ mi+ - 270° 270° 4 kt METAR EDLV 272150Z 27004KT CAVOK 10/05 Q1022
11:20 pm
V
52 °F 6¼ mi+ - 280° 280° 6 kt METAR EDLV 272120Z 28006KT CAVOK 11/05 Q1022
10:50 pm
V
52 °F 6¼ mi+ - 270° 270° 5 kt METAR EDLV 272050Z 27005KT CAVOK 11/05 Q1023
10:20 pm
V
54 °F 6¼ mi+ - 290° 290° 4 kt METAR EDLV 272020Z 29004KT CAVOK 12/05 Q1023
9:50 pm
V
54 °F 6¼ mi+ - 300° 300° 3 kt METAR EDLV 271950Z 30003KT 270V330 CAVOK 12/05 Q1022
9:20 pm
V
55 °F 6¼ mi+ - 290° 290° 5 kt METAR EDLV 271920Z 29005KT CAVOK 13/05 Q1022
8:50 pm
V
57 °F 6¼ mi+ - 290° 290° 8 kt METAR EDLV 271850Z 29008KT 270V330 CAVOK 14/05 Q1022
8:20 pm
V
57 °F 6¼ mi+ - 300° 300° 10 kt METAR EDLV 271820Z 30010KT 280V340 9999 FEW049 14/04 Q1022
7:50 pm
V
59 °F 6¼ mi+ - 290° 290° 11 kt METAR EDLV 271750Z 29011KT 260V320 9999 FEW044 15/05 Q1022
7:20 pm
V
59 °F 6¼ mi+ - 300° 300° 11 kt METAR EDLV 271720Z 30011KT 270V340 9999 SCT046 15/05 Q1022
6:50 pm
V
59 °F 6¼ mi+ - 300° 300° 12 kt METAR EDLV 271650Z 30012KT 270V350 9999 FEW048 15/05 Q1022
6:20 pm
V
61 °F 6¼ mi+ - 300° 300° 12 - 22 kt METAR EDLV 271620Z 30012G22KT 270V340 9999 FEW049 16/05 Q1022
5:50 pm
V
61 °F 6¼ mi+ - 290° 290° 15 kt METAR EDLV 271550Z 29015KT 270V330 CAVOK 16/05 Q1022
5:20 pm
V
61 °F 6¼ mi+ - 300° 300° 13 kt METAR EDLV 271520Z 30013KT 270V340 9999 SCT049 16/05 Q1022
4:50 pm
V
63 °F 6¼ mi+ - 300° 300° 13 - 23 kt METAR EDLV 271450Z 30013G23KT 250V340 CAVOK 17/06 Q1022
4:20 pm
V
64 °F 6¼ mi+ - 300° 300° 13 kt METAR EDLV 271420Z 30013KT 260V340 CAVOK 18/06 Q1021
3:50 pm
V
64 °F 6¼ mi+ - 300° 300° 12 kt METAR EDLV 271350Z 30012KT 280V350 CAVOK 18/07 Q1021
3:20 pm
V
64 °F 6¼ mi+ - 290° 290° 12 kt METAR EDLV 271320Z 29012KT 270V350 9999 SCT048 18/06 Q1021
2:50 pm
V
63 °F 6¼ mi+ - 280° 280° 16 kt METAR EDLV 271250Z 28016KT 250V310 CAVOK 17/05 Q1021
2:20 pm
V
64 °F 6¼ mi+ - 290° 290° 15 kt METAR EDLV 271220Z 29015KT 250V320 9999 SCT048 18/06 Q1021
1:50 pm
V
64 °F 6¼ mi+ - 290° 290° 12 kt METAR EDLV 271150Z 29012KT 250V350 9999 SCT047 18/07 Q1021
1:20 pm
V
63 °F 6¼ mi+ 4.600 ft 290° 290° 14 - 24 kt METAR EDLV 271120Z 29014G24KT 270V340 9999 BKN046 17/06 Q1021
12:50 pm
V
64 °F 6¼ mi+ - 300° 300° 12 kt METAR EDLV 271050Z 30012KT 270V340 9999 SCT044 18/08 Q1021
12:20 pm
V
63 °F 6¼ mi+ - 290° 290° 12 - 23 kt METAR EDLV 271020Z 29012G23KT 260V330 9999 SCT042 17/08 Q1021
11:50 am
V
63 °F 6¼ mi+ - 300° 300° 9 kt METAR EDLV 270950Z 30009KT 280V350 9999 SCT040 17/08 Q1021
11:20 am
V
61 °F 6¼ mi+ 4.200 ft 300° 300° 11 kt METAR EDLV 270920Z 30011KT 270V330 9999 FEW037 BKN042 16/09 Q1021
10:50 am
V
61 °F 6¼ mi+ 3.900 ft 300° 300° 8 kt METAR EDLV 270850Z 30008KT 260V360 9999 FEW034 BKN039 BKN046 16/08 Q1021
10:20 am
V
61 °F 6¼ mi+ - 300° 300° 9 kt METAR EDLV 270820Z 30009KT 280V340 9999 SCT032 SCT042 16/09 Q1020
9:50 am
V
59 °F 6¼ mi+ 3.100 ft 300° 300° 10 kt METAR EDLV 270750Z 30010KT 270V340 9999 FEW022 SCT026 BKN031 15/09 Q1020
9:20 am
V
61 °F 6¼ mi+ 4.700 ft 280° 280° 8 kt METAR EDLV 270720Z 28008KT 250V320 9999 SCT017 BKN047 16/12 Q1020
8:50 am
V
59 °F 6¼ mi+ 4.900 ft 290° 290° 9 kt METAR EDLV 270650Z 29009KT 9999 SCT008 OVC049 15/12 Q1020
8:20 am
V
57 °F 6¼ mi+ 4.700 ft 260° 260° 7 kt METAR EDLV 270620Z 26007KT 9999 SCT007 BKN047 14/13 Q1020
7:50 am
V
57 °F 6¼ mi+ - 260° 260° 6 kt METAR EDLV 270550Z 26006KT 9999 FEW020 14/13 Q1020
7:20 am
V
55 °F 6¼ mi+ 4.200 ft 240° 240° 6 kt METAR EDLV 270520Z 24006KT 9999 FEW014 BKN042 13/12 Q1019
6:50 am
V
55 °F 6¼ mi+ 4.200 ft 250° 250° 6 kt METAR EDLV 270450Z 25006KT 9999 BKN042 13/12 Q1019
6:20 am
V
55 °F 6¼ mi+ 4.500 ft 230° 230° 7 kt METAR EDLV 270420Z 23007KT 9999 FEW007 SCT015 OVC045 13/12 Q1019
5:50 am
V
55 °F 5⅝ mi 3.700 ft 240° 240° 7 kt METAR EDLV 270350Z 24007KT 9000 -RA FEW011 BKN037 OVC047 13/12 Q1019
5:20 am
V
55 °F 6¼ mi+ 4.100 ft 260° 260° 7 kt METAR EDLV 270320Z 26007KT 9999 -RA FEW017 SCT036 OVC041 13/12 Q1019 RERA
4:50 am
I
55 °F 2½ mi 3.300 ft 290° 290° 6 kt METAR EDLV 270250Z 29006KT 4000 RA SCT004 OVC033 13/13 Q1019
4:20 am
I
55 °F 2⅛ mi 800 ft 260° 260° 9 kt METAR EDLV 270220Z AUTO 26009KT 3500 // OVC008/// 13/12 Q1019
3:50 am
M
57 °F 5⅝ mi 1.500 ft 250° 250° 12 kt METAR EDLV 270150Z AUTO 25012KT 9000 // OVC015/// 14/12 Q1019
3:20 am
M
59 °F 6¼ mi+ 2.000 ft 250° 250° 13 kt METAR EDLV 270120Z AUTO 25013KT 210V270 9999 // OVC020/// 15/11 Q1019
2:50 am
M
59 °F 6¼ mi+ 2.100 ft 250° 250° 11 kt METAR EDLV 270050Z AUTO 25011KT 9999 // BKN021/// OVC033/// 15/11 Q1019
2:20 am
M
59 °F 6¼ mi+ 2.200 ft 240° 240° 12 kt METAR EDLV 270020Z AUTO 24012KT 9999 // BKN022/// BKN032/// OVC052/// 15/11 Q1019
1:50 am
M
59 °F 6¼ mi+ 2.900 ft 240° 240° 13 kt METAR EDLV 262350Z AUTO 24013KT 220V280 9999 // SCT022/// BKN029/// OVC056/// 15/11 Q1020
1:20 am
V
59 °F 6¼ mi+ 3.300 ft 240° 240° 12 kt METAR EDLV 262320Z AUTO 24012KT 9999 // FEW023/// BKN033/// OVC051/// 15/11 Q1020
12:50 am
V
59 °F 6¼ mi+ 5.400 ft 240° 240° 14 kt METAR EDLV 262250Z AUTO 24014KT 9999 // FEW023/// SCT034/// OVC054/// 15/11 Q1020
12:20 am
V
61 °F 6¼ mi+ 5.300 ft 240° 240° 13 kt METAR EDLV 262220Z AUTO 24013KT 9999 // FEW025/// OVC053/// 16/11 Q1020

26 maja 2022

Czas Kod Pogoda Temp. Widoczność Sufit Wiatr METAR/SPECI
11:50 pm
V
61 °F 6¼ mi+ - 240° 240° 12 kt METAR EDLV 262150Z 24012KT 9999 // SCT039 16/11 Q1020
11:20 pm
V
61 °F 6¼ mi+ - 250° 250° 13 kt METAR EDLV 262120Z 25013KT 9999 FEW029 16/11 Q1020
10:50 pm
V
63 °F 6¼ mi+ - 250° 250° 12 kt METAR EDLV 262050Z 25012KT 9999 // FEW034 17/11 Q1020
10:20 pm
V
63 °F 6¼ mi+ - 250° 250° 12 kt METAR EDLV 262020Z 25012KT 9999 FEW033 17/11 Q1020
9:50 pm
V
64 °F 6¼ mi+ - 250° 250° 13 kt METAR EDLV 261950Z 25013KT 9999 FEW042 18/11 Q1020
9:20 pm
V
64 °F 6¼ mi+ 3.400 ft 250° 250° 16 kt METAR EDLV 261920Z 25016KT 9999 BKN034 OVC043 18/11 Q1020
8:50 pm
V
66 °F 6¼ mi+ 3.500 ft 260° 260° 12 kt METAR EDLV 261850Z 26012KT 9999 OVC035 19/12 Q1019
8:20 pm
V
66 °F 6¼ mi+ 3.800 ft 250° 250° 13 kt METAR EDLV 261820Z 25013KT 9999 OVC038 19/11 Q1019
7:50 pm
V
66 °F 6¼ mi+ 3.900 ft 250° 250° 13 kt METAR EDLV 261750Z 25013KT 220V280 9999 OVC039 19/11 Q1019
7:20 pm
V
66 °F 6¼ mi+ 4.000 ft 240° 240° 14 kt METAR EDLV 261720Z 24014KT 9999 BKN040 OVC048 19/11 Q1019
6:50 pm
V
68 °F 6¼ mi+ 4.300 ft 240° 240° 13 kt METAR EDLV 261650Z 24013KT 9999 BKN043 20/11 Q1020
6:20 pm
V
68 °F 6¼ mi+ 4.500 ft 250° 250° 14 kt METAR EDLV 261620Z 25014KT 9999 BKN045 20/10 Q1020
5:50 pm
V
68 °F 6¼ mi+ 4.300 ft 240° 240° 14 kt METAR EDLV 261550Z 24014KT 9999 BKN043 20/11 Q1020
5:20 pm
V
68 °F 6¼ mi+ 4.500 ft 240° 240° 14 kt METAR EDLV 261520Z 24014KT 9999 OVC045 20/11 Q1020
4:50 pm
V
68 °F 6¼ mi+ 4.500 ft 250° 250° 14 kt METAR EDLV 261450Z 25014KT 9999 BKN045 20/10 Q1020
4:20 pm
V
66 °F 6¼ mi+ - 250° 250° 15 kt METAR EDLV 261420Z 25015KT 9999 SCT041 19/10 Q1020
3:50 pm
V
68 °F 6¼ mi+ 4.300 ft 260° 260° 14 kt METAR EDLV 261350Z 26014KT 9999 BKN043 20/11 Q1021
3:20 pm
V
68 °F 6¼ mi+ 4.400 ft 240° 240° 12 kt METAR EDLV 261320Z 24012KT 9999 BKN044 20/11 Q1021
2:50 pm
V
68 °F 6¼ mi+ - 240° 240° 14 kt METAR EDLV 261250Z 24014KT 210V280 9999 SCT041 20/11 Q1021
2:20 pm
V
66 °F 6¼ mi+ - 240° 240° 11 kt METAR EDLV 261220Z 24011KT 210V270 9999 SCT042 19/10 Q1021
1:50 pm
V
68 °F 6¼ mi+ - 240° 240° 13 kt METAR EDLV 261150Z 24013KT 200V270 9999 SCT040 20/10 Q1021
1:20 pm
V
66 °F 6¼ mi+ 3.900 ft 260° 260° 12 kt METAR EDLV 261120Z 26012KT 230V290 9999 BKN039 19/11 Q1021
12:50 pm
V
64 °F 6¼ mi+ 3.900 ft 250° 250° 13 kt METAR EDLV 261050Z 25013KT 220V280 9999 BKN039 18/10 Q1021
12:20 pm
V
66 °F 6¼ mi+ 3.400 ft 240° 240° 13 kt METAR EDLV 261020Z 24013KT 220V280 9999 BKN034 19/10 Q1021
11:50 am
V
64 °F 6¼ mi+ 3.000 ft 240° 240° 13 kt METAR EDLV 260950Z 24013KT 210V280 9999 BKN030 18/10 Q1021
11:20 am
V
64 °F 6¼ mi+ - 230° 230° 11 kt METAR EDLV 260920Z 23011KT 200V260 9999 FEW024 SCT027 18/11 Q1021
10:50 am
M
63 °F 6¼ mi+ 2.500 ft 240° 240° 12 kt METAR EDLV 260850Z 24012KT 9999 BKN025 17/12 Q1021
10:20 am
M
63 °F 6¼ mi+ 2.400 ft 250° 250° 10 kt METAR EDLV 260820Z 25010KT 220V280 9999 SCT021 BKN024 17/12 Q1020
9:50 am
M
61 °F 6¼ mi+ 1.800 ft 270° 270° 10 kt METAR EDLV 260750Z 27010KT 9999 BKN018 BKN024 16/12 Q1020
9:20 am
M
59 °F 6¼ mi+ 1.600 ft 250° 250° 11 kt METAR EDLV 260720Z 25011KT 9999 BKN016 BKN019 15/12 Q1020
8:50 am
M
59 °F 6¼ mi+ 1.600 ft 260° 260° 11 kt METAR EDLV 260650Z 26011KT 9999 BKN016 15/12 Q1020
8:20 am
V
61 °F 6¼ mi+ - 250° 250° 10 kt METAR EDLV 260620Z 25010KT 9999 SCT015 16/12 Q1019
7:50 am
M
59 °F 6¼ mi+ 1.500 ft 260° 260° 12 kt METAR EDLV 260550Z 26012KT 9999 BKN015 15/12 Q1019
7:20 am
M
59 °F 6¼ mi+ 1.600 ft 260° 260° 8 kt METAR EDLV 260520Z 26008KT 9999 BKN016 BKN044 15/12 Q1019
6:50 am
V
59 °F 6¼ mi+ 4.500 ft 250° 250° 9 kt METAR EDLV 260450Z 25009KT 9999 SCT016 BKN045 15/12 Q1018
6:20 am
M
57 °F 6¼ mi+ 1.700 ft 250° 250° 8 kt METAR EDLV 260420Z 25008KT 9999 BKN017 BKN021 14/12 Q1018
5:50 am
M
57 °F 6¼ mi+ 1.700 ft 240° 240° 8 kt METAR EDLV 260350Z 24008KT 9999 BKN017 BKN023 14/12 Q1018
5:20 am
M
59 °F 6¼ mi+ 2.000 ft 230° 230° 8 kt METAR EDLV 260320Z 23008KT 9999 VCSH FEW017TCU OVC020 15/12 Q1018
4:50 am
M
59 °F 6¼ mi+ 1.700 ft 240° 240° 11 kt METAR EDLV 260250Z 24011KT 9999 VCSH BKN017TCU OVC032 15/11 Q1018
4:20 am
M
59 °F 6¼ mi+ 1.800 ft 240° 240° 10 kt METAR EDLV 260220Z AUTO 24010KT 9999 // BKN018/// OVC025/// 15/11 Q1017
3:50 am
M
59 °F 6¼ mi+ 1.900 ft 240° 240° 12 kt METAR EDLV 260150Z AUTO 24012KT 9999 // BKN019/// OVC026/// 15/11 Q1017
3:20 am
M
59 °F 6¼ mi+ 2.000 ft 240° 240° 10 kt METAR EDLV 260120Z AUTO 24010KT 200V270 9999 // OVC020/// 15/11 Q1017
2:50 am
M
59 °F 6¼ mi+ 2.100 ft 240° 240° 11 kt METAR EDLV 260050Z AUTO 24011KT 9999 // OVC021/// 15/11 Q1017
2:20 am
M
59 °F 6¼ mi+ 2.000 ft 240° 240° 11 kt METAR EDLV 260020Z AUTO 24011KT 9999 // OVC020/// 15/11 Q1017
1:50 am
M
59 °F 6¼ mi+ 2.000 ft 240° 240° 12 kt METAR EDLV 252350Z AUTO 24012KT 9999 // BKN020/// OVC024/// 15/11 Q1017
1:20 am
M
59 °F 6¼ mi+ 2.300 ft 240° 240° 13 kt METAR EDLV 252320Z AUTO 24013KT 200V260 9999 // OVC023/// 15/11 Q1017
12:50 am
M
59 °F 6¼ mi+ 2.600 ft 240° 240° 9 kt METAR EDLV 252250Z AUTO 24009KT 9999 // OVC026/// 15/10 Q1017
12:20 am
M
59 °F 6¼ mi+ 2.700 ft 250° 250° 12 kt METAR EDLV 252220Z AUTO 25012KT 9999 // OVC027/// 15/10 Q1017

25 maja 2022

Czas Kod Pogoda Temp. Widoczność Sufit Wiatr METAR/SPECI
11:50 pm
M
59 °F 6¼ mi+ 2.900 ft 240° 240° 10 kt METAR EDLV 252150Z 24010KT 200V280 9999 BKN029 OVC038 15/10 Q1017
11:20 pm
V
59 °F 6¼ mi+ 3.000 ft 250° 250° 13 kt METAR EDLV 252120Z 25013KT 220V280 9999 OVC030 15/10 Q1017
10:50 pm
V
61 °F 6¼ mi+ 3.400 ft 230° 230° 10 kt METAR EDLV 252050Z 23010KT 9999 OVC034 16/09 Q1017
10:20 pm
V
59 °F 6¼ mi+ 3.500 ft 240° 240° 12 kt METAR EDLV 252020Z 24012KT 9999 FEW031 OVC035 15/09 Q1016
9:50 pm
V
59 °F 6¼ mi+ 3.600 ft 240° 240° 9 kt METAR EDLV 251950Z 24009KT 210V270 9999 BKN036 OVC045 15/09 Q1016
9:20 pm
V
61 °F 6¼ mi+ 3.900 ft 250° 250° 17 kt METAR EDLV 251920Z 25017KT 9999 OVC039 16/09 Q1016
Starsze dane

Pobierz naszą aplikację

Łatwy dostęp do całej pogody lotniczej na telefonie komórkowym i tablecie.
Z wieloma funkcjami niedostępnymi na stronie internetowej, takimi jak wsparcie offline i osobista lista lotnisk.

My i osoby trzecie śledzimy twoje zachowanie w internecie na naszej stronie za pomocą plików cookie. Jeśli kontynuujesz, zakładamy, że zgadzasz się z naszą polityką plików cookie. Dowiedz się więcej